Stations météo

réclame
Mon MeteoGroup
Trapani/Birgi, Italie (16429): Température de l'air & dewpoint: 13.11.2017 18:00:00 - 19.11.2017 18:00:00 (CET)Trapani/Birgi, Italie (16429): Vitesse du vent: 13.11.2017 18:00:00 - 19.11.2017 18:00:00 (CET)Trapani/Birgi, Italie (16429): Direction du vent: 13.11.2017 18:00:00 - 19.11.2017 18:00:00 (CET)Trapani/Birgi, Italie (16429): reduced air pressure: 13.11.2017 18:00:00 - 19.11.2017 18:00:00 (CET)Trapani/Birgi, Italie (16429): visibility: 13.11.2017 18:00:00 - 19.11.2017 18:00:00 (CET)Trapani/Birgi, Italie (16429): Ensoleillement: 13.11.2017 18:00:00 - 19.11.2017 18:00:00 (CET)
Date & Time tt [°C] td [°C] ff [km/h] ff [knt] dd ppp [hPa] vv [km] sd [min]
19.11.2017 18:00:00 15,8 13,1 18 10 WNW 1016,1 10 -
19.11.2017 17:00:00 16,0 13,1 22 12 WNW 1016,3 10 12
19.11.2017 16:00:00 17,0 13,1 26 14 WNW 1016,1 10 54
19.11.2017 15:00:00 17,0 13,5 13 7 WNW 1016,1 10 12
19.11.2017 14:00:00 17,2 13,1 13 7 WNW 1016,4 10 30
19.11.2017 13:00:00 17,2 12,1 11 6 NW 1016,7 10 60
19.11.2017 12:00:00 17,2 11,7 15 8 NW 1017,1 10 60
19.11.2017 11:00:00 16,8 11,3 16 9 NW 1017,4 10 60
19.11.2017 10:00:00 16,2 10,7 16 9 NNW 1017,3 10 48
19.11.2017 09:00:00 16,0 10,7 16 9 NW 1017,2 10 24
19.11.2017 08:00:00 15,0 10,0 16 9 NW 1016,8 10 12
19.11.2017 07:00:00 15,0 10,6 16 9 NNW 1016,1 10 0
19.11.2017 06:00:00 15,0 10,2 16 9 NNW 1015,8 10 -
19.11.2017 05:00:00 14,8 10,4 16 9 NNW 1015,8 10 -
19.11.2017 04:00:00 15,0 10,8 16 9 NNW 1015,9 10 -
19.11.2017 03:00:00 15,0 10,8 18 10 NNW 1015,9 10 -
19.11.2017 02:00:00 15,0 11,2 18 10 NW 1016,2 10 -
19.11.2017 01:00:00 15,0 11,2 18 10 NW 1016,2 10 -
19.11.2017 00:00:00 15,0 11,2 15 8 NW 1016,4 10 -
18.11.2017 23:00:00 15,0 11,2 15 8 NNW 1016,2 10 -
18.11.2017 22:00:00 15,0 11,6 16 9 NNW 1016,1 10 -
18.11.2017 21:00:00 14,8 10,6 13 7 NW 1015,8 10 -
18.11.2017 20:00:00 14,6 10,4 11 6 NNW 1015,5 10 -
18.11.2017 19:00:00 13,8 13,2 0 0 N 1015,5 10 -
18.11.2017 18:00:00 14,4 13,8 9 5 W 1015,3 10 -
18.11.2017 17:00:00 16,2 13,7 16 9 NW 1015,3 10 24
18.11.2017 16:00:00 16,6 13,9 13 7 NW 1015,1 10 0
18.11.2017 15:00:00 16,6 13,1 11 6 NW 1015,2 10 24
18.11.2017 14:00:00 16,6 13,5 11 6 NNW 1015,1 10 30
18.11.2017 13:00:00 16,0 12,4 13 7 NW 1015,5 10 0
18.11.2017 12:00:00 15,0 13,9 11 6 N 1016,0 10 18
18.11.2017 11:00:00 17,4 13,3 18 10 WNW 1016,1 10 60
18.11.2017 10:00:00 16,8 12,1 15 8 NW 1016,1 10 36
18.11.2017 09:00:00 14,4 12,3 4 2 - 1015,4 10 12
18.11.2017 08:00:00 11,2 10,7 5 3 - 1015,2 10 0
18.11.2017 07:00:00 11,0 10,9 9 5 SSE 1014,5 10 0
18.11.2017 06:00:00 12,0 11,8 5 3 SE 1014,3 10 -
18.11.2017 05:00:00 10,4 8,2 4 2 ESE 1014,2 10 -
18.11.2017 04:00:00 15,0 12,3 13 7 NNW 1014,5 10 -
18.11.2017 03:00:00 14,8 12,8 13 7 NNW 1014,7 10 -
18.11.2017 02:00:00 14,4 12,8 15 8 NW 1014,6 10 -
18.11.2017 01:00:00 13,4 12,1 5 3 N 1014,6 12 -
18.11.2017 00:00:00 14,4 11,5 13 7 N 1014,6 10 -
17.11.2017 23:00:00 14,0 12,9 8 4 N 1014,5 10 -
17.11.2017 22:00:00 15,4 12,5 9 5 N 1014,1 10 -
17.11.2017 21:00:00 15,2 12,5 13 7 N 1016,1 10 -
17.11.2017 20:00:00 14,4 13,6 8 4 N 1013,6 10 -
17.11.2017 19:00:00 14,0 13,2 5 3 NE 1013,0 10 -
17.11.2017 18:00:00 15,0 14,2 9 5 NNE 1012,4 10 -
17.11.2017 17:00:00 15,8 12,4 8 4 N 1012,1 10 -
17.11.2017 16:00:00 16,4 12,5 16 9 N 1012,1 10 30
17.11.2017 15:00:00 16,2 12,7 16 9 N 1012,0 10 6
17.11.2017 14:00:00 16,2 14,5 21 11 NNW 1012,2 10 0
17.11.2017 13:00:00 17,0 13,5 24 13 NNW 1012,3 10 6
17.11.2017 12:00:00 16,0 13,3 21 11 NNW 1012,5 10 6
17.11.2017 11:00:00 16,0 12,7 22 12 NNW 1012,8 10 0
17.11.2017 10:00:00 15,0 12,3 22 12 NNW 1012,8 10 0
17.11.2017 09:00:00 14,0 10,6 15 8 NNW 1012,9 10 6
17.11.2017 08:00:00 13,8 11,5 21 11 NNW 1012,5 10 0
17.11.2017 07:00:00 13,8 12,4 13 7 N 1012,2 10 0
17.11.2017 06:00:00 14,0 10,6 21 11 NW 1012,4 10 -
17.11.2017 05:00:00 13,2 11,6 22 12 WNW 1012,6 10 -
17.11.2017 04:00:00 14,6 11,9 15 8 NW 1012,7 10 -
17.11.2017 03:00:00 14,8 11,8 16 9 NW 1013,0 10 -
17.11.2017 02:00:00 13,8 12,7 16 9 WNW 1013,0 10 -
17.11.2017 01:00:00 14,2 12,6 26 14 WNW 1013,3 10 -
17.11.2017 00:00:00 14,6 12,6 26 14 WNW 1013,3 10 -
16.11.2017 23:00:00 14,0 12,0 26 14 NW 1013,3 10 -
16.11.2017 22:00:00 13,2 11,6 9 5 NNW 1013,3 10 -
16.11.2017 21:00:00 14,0 13,2 5 3 NNW 1013,1 10 -
16.11.2017 20:00:00 14,0 12,7 4 2 N 1012,7 10 -
16.11.2017 19:00:00 14,8 11,6 16 9 N 1012,6 10 -
16.11.2017 18:00:00 15,4 12,0 18 10 N 1012,2 10 0
16.11.2017 17:00:00 15,8 11,6 24 13 N 1012,1 10 24
16.11.2017 16:00:00 19,6 15,5 24 13 NW 1011,8 10 60
16.11.2017 15:00:00 17,2 11,9 18 10 NW 1011,7 10 60
16.11.2017 14:00:00 17,2 12,5 15 8 NW 1011,7 10 60
16.11.2017 13:00:00 16,6 12,4 18 10 NW 1012,1 10 60
16.11.2017 12:00:00 16,6 10,5 21 11 NNW 1012,5 10 30
16.11.2017 11:00:00 16,0 10,7 4 2 N 1012,6 10 0
16.11.2017 10:00:00 14,0 11,4 2 1 NNW 1012,7 10 0
16.11.2017 09:00:00 14,0 10,8 8 4 E 1012,1 10 0
16.11.2017 08:00:00 14,2 8,4 18 10 NW 1011,3 10 0
16.11.2017 07:00:00 10,4 10,3 2 1 N 1011,1 10 0
16.11.2017 06:00:00 9,0 8,7 5 3 S 1010,8 10 -
16.11.2017 05:00:00 9,0 7,9 - - SE 1010,7 10 -
16.11.2017 04:00:00 9,0 7,1 5 3 NE 1010,6 10 -
16.11.2017 03:00:00 9,4 8,8 4 2 ESE 1010,5 10 -
16.11.2017 02:00:00 10,2 9,4 9 5 SE 1010,7 10 -
16.11.2017 01:00:00 10,6 10,1 4 2 W 1010,1 10 -
16.11.2017 00:00:00 11,6 9,2 5 3 SE 1010,8 10 -
15.11.2017 23:00:00 12,0 9,5 9 5 ESE 1010,3 10 -
15.11.2017 22:00:00 12,0 9,2 8 4 ENE 1010,0 10 -
15.11.2017 21:00:00 12,0 9,5 4 2 NNE 1009,9 10 -
15.11.2017 20:00:00 13,0 8,7 9 5 ENE 1009,3 10 -
15.11.2017 19:00:00 13,0 8,9 11 6 ENE 1009,0 10 -
15.11.2017 18:00:00 13,0 9,2 11 6 E 1008,4 10 -
15.11.2017 17:00:00 13,0 9,8 13 7 E 1008,2 10 0
15.11.2017 16:00:00 13,0 9,8 16 9 E 1008,1 10 0
15.11.2017 15:00:00 14,2 10,4 18 10 ESE 1008,1 10 0
15.11.2017 14:00:00 13,8 11,3 18 10 ESE 1008,1 10 0
15.11.2017 13:00:00 13,0 11,4 13 7 SE 1008,5 10 0
15.11.2017 12:00:00 14,6 10,4 34 18 SSE 1008,3 10 0
15.11.2017 11:00:00 14,2 9,8 31 17 SE 1008,3 10 24
15.11.2017 10:00:00 12,0 9,9 26 14 SE 1008,5 10 0
15.11.2017 09:00:00 11,2 9,3 22 12 ESE 1008,2 10 0
15.11.2017 08:00:00 10,6 8,9 11 6 ESE 1008,1 10 0
15.11.2017 07:00:00 10,0 8,3 24 13 ESE 1007,1 10 0
15.11.2017 06:00:00 9,6 8,2 21 11 ESE 1006,7 10 -
15.11.2017 05:00:00 9,2 7,8 18 10 ESE 1006,5 10 -
15.11.2017 04:00:00 8,8 7,2 18 10 SE 1006,6 10 -
15.11.2017 03:00:00 9,0 7,3 15 8 ESE 1006,5 10 -
15.11.2017 02:00:00 8,4 7,7 8 4 ESE 1006,6 10 -
15.11.2017 01:00:00 8,6 7,8 9 5 ESE 1006,6 10 -
15.11.2017 00:00:00 8,6 7,2 11 6 ESE 1006,6 10 -
14.11.2017 23:00:00 9,2 7,3 9 5 E 1006,6 10 -
14.11.2017 22:00:00 9,8 8,7 11 6 ESE 1006,4 10 -
14.11.2017 21:00:00 10,4 8,3 8 4 ESE 1006,1 10 -
14.11.2017 20:00:00 10,4 9,3 9 5 E 1006,0 10 -
14.11.2017 19:00:00 11,0 9,3 9 5 ESE 1005,4 10 0
14.11.2017 18:00:00 11,0 9,4 8 4 S 1004,9 10 0
14.11.2017 17:00:00 12,4 10,5 5 3 S 1004,4 10 0
14.11.2017 16:00:00 12,6 11,0 8 4 S 1004,1 10 18
14.11.2017 15:00:00 13,0 8,7 13 7 SE 1003,9 10 0
14.11.2017 14:00:00 11,6 10,0 8 4 ESE 1003,4 10 18
14.11.2017 13:00:00 13,0 10,0 13 7 W 1003,8 10 0
14.11.2017 12:00:00 12,8 9,4 22 12 SSE 1004,1 10 0
14.11.2017 11:00:00 12,4 9,0 18 10 ESE 1004,1 10 24
14.11.2017 10:00:00 11,2 9,0 13 7 SE 1004,1 10 0
14.11.2017 09:00:00 11,2 9,5 16 9 SE 1003,7 10 0
14.11.2017 08:00:00 11,0 9,1 21 11 ESE 1003,3 10 0
14.11.2017 07:00:00 10,0 9,2 11 6 SE 1002,8 10 0
14.11.2017 06:00:00 10,0 9,2 16 9 SSE 1002,4 10 -
14.11.2017 05:00:00 11,0 10,2 16 9 ESE 1001,9 10 -
14.11.2017 04:00:00 11,0 10,2 18 10 ESE 1001,9 10 -
14.11.2017 03:00:00 13,0 6,6 22 12 W 1002,5 10 -
14.11.2017 02:00:00 13,0 6,6 22 12 W 1002,5 10 -
14.11.2017 01:00:00 13,8 7,6 22 12 W 1003,1 10 -
14.11.2017 00:00:00 13,8 8,2 24 13 W 1003,3 10 -
13.11.2017 23:00:00 14,0 7,8 16 9 W 1003,4 10 -
13.11.2017 22:00:00 14,0 7,8 22 12 W 1003,5 10 -
13.11.2017 21:00:00 14,0 7,1 26 14 W 1003,5 10 -
13.11.2017 20:00:00 13,2 8,9 26 14 W 1003,5 10 -
13.11.2017 19:00:00 15,0 6,8 31 17 W 1003,4 10 -
13.11.2017 18:00:00 14,8 7,8 31 17 W 1003,4 10 -

tt = Température de l'air
td = dewpoint
ff = Vitesse du vent
dd = Direction du vent
ppp = reduced air pressure
vv = visibility
sd = Ensoleillement

stations d'obs. à proximité